Location: Tyumen
(57.1527°N, 65.5323°E)
Time: 08:10:18
(UTC+05:00)

ISS - Pass Details

Date: 04 December 2024
Orbit: 411 x 421 km, 51.6° (Epoch: 03 December)

Event Time Altitude Azimuth Distance (km) Brightness Sun altitude
Rises 17:00:53 0° 269° (W) 2,373 1.3 -7.6°
Reaches altitude 10° 17:03:49 10° 241° (WSW) 1,506 0.8 -8.0°
Maximum altitude 17:05:30 13° 211° (SSW) 1,321 -0.2 -8.2°
Drops below altitude 10° 17:07:11 10° 181° (S) 1,503 -0.5 -8.4°
Sets 17:10:07 0° 153° (SSE) 2,363 0.1 -8.7°
